Chicago Executive, IL

1:16 PM CDT on October 19, 2019 (GMT -0500)
Chicago Executive

Weather History for KPWK - September, 2019

Change the Weather History Date:

Tuesday, September 17, 2019

  Actual Average Record
Temperature  
Mean Temperature 71 °F 64 °F  
Max Temperature 75 °F 74 °F 92 °F (2018)
Min Temperature 66 °F 54 °F 45 °F (1999)
Degree Days  
Heating Degree Days 0 3  
Month to date heating degree days 2 29  
Since 1 July heating degree days 2 39  
Cooling Degree Days 6 2  
Month to date cooling degree days 98 62  
Year to date cooling degree days 905 759  
Growing Degree Days 21 (Base 50)    
Moisture  
Dew Point 63 °F    
Average Humidity 83    
Maximum Humidity 90    
Minimum Humidity 67    
Precipitation  
Precipitation 0.00 in 0.09 in 1.27 in (2015)
Month to date precipitation 4.24 1.78  
Year to date precipitation 33.56 24.26  
Sea Level Pressure  
Sea Level Pressure 30.16 in    
Wind  
Wind Speed 4 mph ()    
Max Wind Speed 10 mph    
Max Gust Speed 14 mph    
Visibility 8.5 miles    
Events      
T = Trace of Precipitation, MM = Missing Value Source: Averaged Metar Reports

Daily Weather History Graph

Daily Weather History Graph

Search for Another Location

Airport or City:

Astronomy

Sep. 17, 2019 Rise Set
Actual Time 6:33 AM CDT 6:58 PM CDT
Civil Twilight 6:05 AM CDT 7:25 PM CDT
Nautical Twilight 5:32 AM CDT 7:58 PM CDT
Astronomical Twilight 4:58 AM CDT 8:32 PM CDT
Moon 8:57 PM CDT (9/17) 9:40 AM CDT (9/17)
Length of Visible Light 13h 20m
Length of Day
12h 24m
Waning Gibbous, 89% of the Moon is Illuminated
Sep 17
Waning Gibbous
Sep 21
Last Quarter
Sep 28
New
Oct 5
First Quarter
Oct 13
Full

Hourly Weather History & Observations

Time (CDT) Temp. Dew Point Humidity Pressure Visibility Wind Dir Wind Speed Gust Speed Precip Events Conditions
12:52 AM 66.0 °F 63.0 °F 90% 30.15 in 9.0 mi East 3.5 mph - N/A   Overcast
2:28 AM 66.0 °F 62.1 °F 87% 30.16 in 8.0 mi ENE 3.5 mph - N/A   Overcast
2:48 AM 66.2 °F 62.6 °F 88% 30.16 in 8.0 mi East 3.5 mph - N/A   Overcast
2:52 AM 66.0 °F 62.1 °F 87% 30.15 in 8.0 mi East 3.5 mph - N/A   Overcast
3:14 AM 66.0 °F 62.1 °F 87% 30.16 in 7.0 mi ESE 3.5 mph - N/A   Overcast
3:52 AM 66.0 °F 63.0 °F 90% 30.16 in 8.0 mi SE 4.6 mph - N/A   Overcast
4:52 AM 66.0 °F 63.0 °F 90% 30.16 in 7.0 mi SSE 4.6 mph - N/A   Overcast
5:33 AM 66.0 °F 63.0 °F 90% 30.17 in 5.0 mi East 3.5 mph - N/A   Overcast
5:52 AM 66.0 °F 63.0 °F 90% 30.17 in 6.0 mi Variable 4.6 mph - N/A   Overcast
6:11 AM 66.9 °F 63.0 °F 87% 30.18 in 8.0 mi East 3.5 mph - N/A   Overcast
6:52 AM 66.0 °F 63.0 °F 90% 30.19 in 6.0 mi Calm Calm - N/A   Overcast
7:19 AM 66.0 °F 63.0 °F 90% 30.19 in 5.0 mi East 4.6 mph - N/A   Overcast
7:34 AM 66.9 °F 63.0 °F 87% 30.20 in 6.0 mi East 3.5 mph - N/A   Overcast
7:52 AM 66.9 °F 63.0 °F 87% 30.20 in 6.0 mi ESE 4.6 mph - N/A   Overcast
8:03 AM 66.9 °F 63.0 °F 87% 30.20 in 7.0 mi ENE 3.5 mph - N/A   Overcast
8:52 AM 68.0 °F 63.0 °F 84% 30.20 in 9.0 mi East 4.6 mph - N/A   Mostly Cloudy
9:52 AM 69.1 °F 62.1 °F 78% 30.21 in 10.0 mi East 4.6 mph - N/A   Mostly Cloudy
10:17 AM 70.0 °F 63.0 °F 78% 30.21 in 8.0 mi East 6.9 mph - N/A   Mostly Cloudy
10:37 AM 70.0 °F 63.0 °F 78% 30.20 in 10.0 mi SE 5.8 mph - N/A   Scattered Clouds
10:52 AM 71.1 °F 63.0 °F 75% 30.20 in 10.0 mi East 6.9 mph - N/A   Scattered Clouds
11:52 AM 73.9 °F 64.0 °F 71% 30.19 in 10.0 mi SE 3.5 mph - N/A   Clear
12:52 PM 75.0 °F 64.0 °F 69% 30.18 in 10.0 mi East 6.9 mph - N/A   Clear
1:52 PM 75.9 °F 64.0 °F 67% 30.16 in 10.0 mi East 6.9 mph - N/A   Clear
2:52 PM 75.0 °F 64.9 °F 71% 30.14 in 10.0 mi East 8.1 mph - N/A   Clear
3:52 PM 73.9 °F 64.9 °F 73% 30.13 in 10.0 mi East 6.9 mph - N/A   Clear
4:52 PM 73.9 °F 64.9 °F 73% 30.12 in 10.0 mi ENE 6.9 mph - N/A   Clear
5:52 PM 73.0 °F 64.0 °F 73% 30.12 in 10.0 mi East 5.8 mph - N/A   Clear
6:52 PM 71.1 °F 64.0 °F 78% 30.12 in 10.0 mi ENE 4.6 mph - N/A   Clear
7:52 PM 70.0 °F 64.9 °F 84% 30.12 in 10.0 mi Calm Calm - N/A   Clear
8:52 PM 68.0 °F 64.0 °F 87% 30.12 in 9.0 mi Calm Calm - N/A   Clear
9:52 PM 68.0 °F 64.0 °F 87% 30.13 in 10.0 mi Calm Calm - N/A   Clear
10:52 PM 68.0 °F 64.0 °F 87% 30.13 in 10.0 mi East 3.5 mph - N/A   Clear
11:52 PM 68.0 °F 64.0 °F 87% 30.13 in 10.0 mi Calm Calm - N/A   Clear